Flag for Canada Weather past 2 weeks in Pond Inlet, Nunavut, Canada

Now
41 °F

Sunny.


Feels Like: 36 °F
Forecast: 38 / 47 °F
Wind: 7 mph from East

Location: Pond Inlet

Current Time: Aug 1, 2015 at 4:29:09 AM

Latest Report: Aug 1, 2015 at 4:00 AM


Visibility: 9 mi

Pressure: 30.11 "Hg

Humidity: 70%

Dew point: 32 °F

Location of Pond InletLocation

Historic Weather in Pond Inlet — Graph

°F

Pond Inlet temperature yesterday

Maximum temperature yesterday: 46 °F (at 6:00 PM)
Minimum temperature yesterday: 39 °F (at 12:00 AM)
Average temperature yesterday: 43 °F

Past Weeks' High & Low Weather Summary

 TemperatureHumidityPressure
High64 °F (Jul 23, 4:00 PM)93% (Jul 27, 4:00 AM)30.20 "Hg (Jul 27, 4:00 AM)
Low36 °F (Jul 27, 4:00 AM)39% (Jul 25, 7:00 PM)29.85 "Hg (Jul 27, 5:00 PM)
Average47 °F70%30.04 "Hg
* Reported Jul 17 3:00 AM — Aug 1 3:00 AM, Pond Inlet, Weather by CustomWeather, © 2015

Note: Actual official high and low records may vary slightly from our data, if they occured in-between our weather recording intervals... More about our weather records

Advertising

Pond Inlet weather history for previous 24 hours

 ConditionsComfort  
Time TempWeatherWind HumidityBarometerVisibility
3:00 AM
Sat, Aug 1
41 °FSunny.12 mph76%30.11 "Hg9 mi
2:00 AM43 °FPassing clouds.8 mph71%30.12 "Hg9 mi
1:00 AM41 °FPassing clouds.14 mph76%30.12 "Hg9 mi
12:00 AM41 °FSunny.18 mph76%30.13 "Hg9 mi
11:00 PM
Fri, Jul 31
41 °FSunny.18 mph70%30.13 "Hg9 mi
10:00 PM41 °FSunny.16 mph70%30.14 "Hg9 mi
9:00 PM43 °FSunny.18 mph66%30.14 "Hg9 mi
8:00 PM43 °FSunny.21 mph61%30.13 "Hg9 mi
7:00 PM45 °FScattered clouds.20 mph61%30.13 "Hg35 mi
6:00 PM46 °FPassing clouds.21 mph57%30.13 "Hg35 mi
5:00 PM45 °FScattered clouds.22 mph61%30.13 "Hg35 mi
4:00 PM45 °FScattered clouds.24 mph61%30.13 "Hg35 mi
3:00 PM45 °FScattered clouds.20 mph66%30.12 "Hg35 mi
2:00 PM45 °FScattered clouds.22 mph66%30.12 "Hg40 mi
1:00 PM45 °FScattered clouds.18 mph66%30.13 "Hg40 mi
12:00 PM43 °FScattered clouds.15 mph76%30.13 "Hg40 mi
11:00 AM43 °FPassing clouds.18 mph76%30.14 "Hg40 mi
10:00 AM45 °FSunny.15 mph66%30.14 "Hg9 mi
9:00 AM45 °FSunny.12 mph66%30.14 "Hg9 mi
8:00 AM45 °FSunny.14 mph66%30.14 "Hg9 mi
7:00 AM43 °FSunny.8 mph71%30.13 "Hg9 mi
6:00 AM43 °FSunny.8 mph71%30.12 "Hg9 mi
5:00 AM41 °FSunny.8 mph76%30.11 "Hg9 mi
4:00 AM41 °FSunny.15 mph76%30.10 "Hg9 mi
Weather by CustomWeather, © 2015

See weather overviewHow to use our weather pages